| time (UTC) | temp F | wind direction | speed knots | gust knots | rain 1hr in | rain 24hr in | rain mn in | humidity % | barometer mb |
| 20260505125029 | 64 | 291 | 1.7 | 6.1 | 0.00 | 0.00 | 0.00 | 61 | 1010.0 |
| 20260505124528 | 64 | 263 | 1.7 | 3.5 | 0.00 | 0.00 | 0.00 | 63 | 1010.1 |
| 20260505123629 | 63 | 209 | 1.7 | 6.1 | 0.00 | 0.00 | 0.00 | 64 | 1010.0 |
| 20260505123050 | 63 | 266 | 1.7 | 6.1 | 0.00 | 0.00 | 0.00 | 63 | 1010.0 |
| 20260505122551 | 63 | 205 | 0.9 | 5.2 | 0.00 | 0.00 | 0.00 | 64 | 1010.0 |
| 20260505122030 | 62 | 220 | 1.7 | 5.2 | 0.00 | 0.00 | 0.00 | 65 | 1009.9 |
| 20260505121530 | 62 | 246 | 1.7 | 5.2 | 0.00 | 0.00 | 0.00 | 64 | 1010.0 |
| 20260505121030 | 62 | 108 | 0.9 | 6.1 | 0.00 | 0.00 | 0.00 | 65 | 1010.0 |
| 20260505120530 | 62 | 228 | 1.7 | 6.1 | 0.00 | 0.00 | 0.00 | 65 | 1009.7 |
| 20260505120030 | 61 | 205 | 1.7 | 8.7 | 0.00 | 0.00 | 0.00 | 66 | 1009.7 |
| 20260505115550 | 61 | 202 | 1.7 | 8.7 | 0.00 | 0.00 | 0.00 | 67 | 1009.9 |
| 20260505115030 | 61 | 215 | 2.6 | 6.1 | 0.00 | 0.00 | 0.00 | 67 | 1009.9 |
| 20260505114530 | 60 | 207 | 1.7 | 3.5 | 0.00 | 0.00 | 0.00 | 67 | 1009.9 |
| 20260505114030 | 60 | 198 | 1.7 | 5.2 | 0.00 | 0.00 | 0.00 | 69 | 1009.9 |
| 20260505113530 | 59 | 176 | 0.9 | 6.1 | 0.00 | 0.00 | 0.00 | 71 | 1009.8 |
| 20260505113030 | 59 | 213 | 1.7 | 6.1 | 0.00 | 0.00 | 0.00 | 71 | 1009.8 |
| 20260505112528 | 58 | 165 | 0.9 | 2.6 | 0.00 | 0.00 | 0.00 | 71 | 1009.8 |
| 20260505112030 | 58 | 214 | 0.9 | 3.5 | 0.00 | 0.00 | 0.00 | 72 | 1009.8 |
| 20260505111530 | 58 | 184 | 0.9 | 3.5 | 0.00 | 0.00 | 0.00 | 73 | 1009.8 |
| 20260505111110 | 57 | 168 | 0.9 | 2.6 | 0.00 | 0.00 | 0.00 | 74 | 1009.9 |
| 20260505110530 | 56 | 198 | 0.9 | 2.6 | 0.00 | 0.00 | 0.00 | 75 | 1010.0 |
| 20260505102030 | 53 | 193 | 0.9 | 3.5 | 0.00 | 0.00 | 0.00 | 80 | 1009.8 |
| 20260505101530 | 53 | 176 | 1.7 | 7.0 | 0.00 | 0.00 | 0.00 | 80 | 1009.7 |
| 20260505101030 | 53 | 186 | 1.7 | 7.0 | 0.00 | 0.00 | 0.00 | 80 | 1009.7 |
| 20260505100549 | 53 | 190 | 1.7 | 5.2 | 0.00 | 0.00 | 0.00 | 79 | 1009.8 |
| 20260505100050 | 52 | 183 | 0.9 | 5.2 | 0.00 | 0.00 | 0.00 | 79 | 1009.8 |
| 20260505095529 | 52 | 185 | 1.7 | 5.2 | 0.00 | 0.00 | 0.00 | 79 | 1009.7 |
| 20260505095029 | 52 | 183 | 0.9 | 5.2 | 0.00 | 0.00 | 0.00 | 79 | 1009.8 |
| 20260505094529 | 52 | 194 | 0.9 | 3.5 | 0.00 | 0.00 | 0.00 | 79 | 1009.9 |
| 20260505094029 | 52 | 209 | 1.7 | 6.1 | 0.00 | 0.00 | 0.00 | 79 | 1009.8 |
| 20260505093529 | 52 | 191 | 0.9 | 3.5 | 0.00 | 0.00 | 0.00 | 78 | 1009.8 |
| 20260505093029 | 52 | 201 | 0.9 | 3.5 | 0.00 | 0.00 | 0.00 | 78 | 1009.8 |
| 20260505092530 | 52 | 199 | 0.9 | 5.2 | 0.00 | 0.00 | 0.00 | 78 | 1009.7 |
| 20260505092030 | 52 | 185 | 0.9 | 3.5 | 0.00 | 0.00 | 0.00 | 78 | 1009.8 |
| 20260505091530 | 52 | 169 | 0.9 | 3.5 | 0.00 | 0.00 | 0.00 | 78 | 1009.8 |
| 20260505091050 | 52 | 196 | 0.9 | 5.2 | 0.00 | 0.00 | 0.00 | 77 | 1009.8 |
| 20260505090530 | 52 | 188 | 1.7 | 7.0 | 0.00 | 0.00 | 0.00 | 77 | 1009.8 |
| 20260505090050 | 53 | 183 | 0.9 | 2.6 | 0.00 | 0.00 | 0.00 | 76 | 1009.8 |
| 20260505085529 | 53 | 174 | 0.9 | 5.2 | 0.00 | 0.00 | 0.00 | 76 | 1009.9 |
| 20260505085034 | 53 | 217 | 0.9 | 5.2 | 0.00 | 0.00 | 0.00 | 76 | 1010.0 |
| 20260505084529 | 53 | 200 | 0.9 | 3.5 | 0.00 | 0.00 | 0.00 | 76 | 1010.0 |
| 20260505084029 | 52 | 207 | 0.9 | 3.5 | 0.00 | 0.00 | 0.00 | 76 | 1010.1 |
| 20260505083529 | 52 | 231 | 0.9 | 6.1 | 0.00 | 0.00 | 0.00 | 76 | 1010.1 |
| 20260505083049 | 52 | 219 | 0.9 | 6.1 | 0.00 | 0.00 | 0.00 | 76 | 1010.0 |
| 20260505082529 | 52 | 205 | 0.9 | 2.6 | 0.00 | 0.00 | 0.00 | 76 | 1010.1 |
| 20260505082048 | 52 | 191 | 0.9 | 6.1 | 0.00 | 0.00 | 0.00 | 75 | 1010.0 |
| 20260505081528 | 52 | 229 | 0.0 | 5.2 | 0.00 | 0.00 | 0.00 | 75 | 1009.9 |
| 20260505081030 | 53 | 190 | 0.9 | 5.2 | 0.00 | 0.00 | 0.00 | 75 | 1009.9 |
| 20260505080530 | 53 | 216 | 0.9 | 2.6 | 0.00 | 0.00 | 0.00 | 75 | 1010.0 |
| 20260505080030 | 53 | 184 | 0.0 | 1.7 | 0.00 | 0.00 | 0.00 | 74 | 1010.1 |
| 20260505075530 | 52 | 196 | 0.9 | 5.2 | 0.00 | 0.00 | 0.00 | 74 | 1010.1 |
| 20260505075030 | 52 | 184 | 0.0 | 3.5 | 0.00 | 0.00 | 0.00 | 74 | 1010.1 |
| 20260505074529 | 52 | 213 | 0.0 | 1.7 | 0.00 | 0.00 | 0.00 | 74 | 1010.0 |
| 20260505074029 | 52 | 193 | 0.9 | 3.5 | 0.00 | 0.00 | 0.00 | 74 | 1010.2 |
| 20260505073529 | 52 | 188 | 0.9 | 7.0 | 0.00 | 0.00 | 0.00 | 74 | 1010.1 |
| 20260505073029 | 52 | 168 | 0.9 | 3.5 | 0.00 | 0.00 | 0.00 | 74 | 1010.1 |
| 20260505072530 | 52 | 190 | 0.9 | 5.2 | 0.00 | 0.00 | 0.00 | 74 | 1010.1 |
| 20260505072030 | 52 | 200 | 0.9 | 2.6 | 0.00 | 0.00 | 0.00 | 73 | 1010.1 |
| 20260505071530 | 52 | 171 | 0.0 | 1.7 | 0.00 | 0.00 | 0.00 | 73 | 1010.1 |
| 20260505071030 | 52 | 154 | 0.0 | 6.1 | 0.00 | 0.00 | 0.00 | 73 | 1010.1 |
| 20260505070530 | 52 | 209 | 0.9 | 6.1 | 0.00 | 0.00 | 0.00 | 73 | 1010.3 |
| 20260505070029 | 52 | 173 | 0.9 | 2.6 | 0.00 | 0.00 | 0.00 | 73 | 1010.2 |
| 20260505065529 | 52 | 218 | 0.9 | 3.5 | 0.00 | 0.00 | 0.00 | 73 | 1010.3 |
| 20260505065028 | 53 | 203 | 0.9 | 2.6 | 0.00 | 0.00 | 0.00 | 72 | 1010.3 |
| 20260505064528 | 53 | 198 | 0.0 | 2.6 | 0.00 | 0.00 | 0.00 | 72 | 1010.3 |
| 20260505064050 | 53 | 171 | 0.9 | 7.0 | 0.00 | 0.00 | 0.00 | 72 | 1010.3 |
| 20260505063530 | 52 | 169 | 0.0 | 2.6 | 0.00 | 0.00 | 0.00 | 72 | 1010.3 |
| 20260505063030 | 53 | 141 | 0.0 | 2.6 | 0.00 | 0.00 | 0.00 | 72 | 1010.3 |
| 20260505062530 | 53 | 152 | 0.0 | 1.7 | 0.00 | 0.00 | 0.00 | 72 | 1010.4 |
| 20260505062050 | 53 | 191 | 0.0 | 1.7 | 0.00 | 0.00 | 0.00 | 72 | 1010.4 |
| 20260505061529 | 53 | 211 | 0.9 | 3.5 | 0.00 | 0.00 | 0.00 | 71 | 1010.3 |
| 20260505061029 | 53 | 217 | 0.0 | 1.7 | 0.00 | 0.00 | 0.00 | 70 | 1010.3 |
| 20260505060529 | 53 | 196 | 0.0 | 2.6 | 0.00 | 0.00 | 0.00 | 70 | 1010.4 |
| 20260505060029 | 53 | 210 | 0.9 | 2.6 | 0.00 | 0.00 | 0.00 | 69 | 1010.3 |
| 20260505055529 | 54 | 261 | 0.0 | 2.6 | 0.00 | 0.00 | 0.00 | 69 | 1010.3 |
| 20260505055029 | 54 | 290 | 0.0 | 0.9 | 0.00 | 0.00 | 0.00 | 68 | 1010.3 |
| 20260505054529 | 54 | 180 | 0.0 | 2.6 | 0.00 | 0.00 | 0.00 | 68 | 1010.4 |
| 20260505054029 | 54 | 204 | 0.9 | 3.5 | 0.00 | 0.00 | 0.00 | 67 | 1010.5 |
| 20260505053531 | 54 | 159 | 0.0 | 3.5 | 0.00 | 0.00 | 0.00 | 67 | 1010.4 |
| 20260505053030 | 54 | 215 | 0.9 | 3.5 | 0.00 | 0.00 | 0.00 | 67 | 1010.4 |
| 20260505052530 | 54 | 224 | 0.9 | 2.6 | 0.00 | 0.00 | 0.00 | 66 | 1010.4 |
| 20260505052030 | 55 | 223 | 0.9 | 3.5 | 0.00 | 0.00 | 0.00 | 66 | 1010.5 |
| 20260505051530 | 55 | 197 | 0.9 | 3.5 | 0.00 | 0.00 | 0.00 | 65 | 1010.4 |
| 20260505051030 | 55 | 210 | 0.9 | 5.2 | 0.00 | 0.00 | 0.00 | 65 | 1010.4 |
| 20260505050530 | 55 | 202 | 2.6 | 7.0 | 0.00 | 0.00 | 0.00 | 65 | 1010.5 |
| 20260505041551 | 56 | 204 | 1.7 | 8.7 | 0.00 | 0.00 | 0.00 | 61 | 1010.5 |
| 20260505041030 | 56 | 208 | 1.7 | 8.7 | 0.00 | 0.00 | 0.00 | 61 | 1010.5 |
| 20260505040530 | 56 | 204 | 1.7 | 7.0 | 0.00 | 0.00 | 0.00 | 61 | 1010.5 |
| 20260505040030 | 56 | 179 | 0.9 | 3.5 | 0.00 | 0.00 | 0.00 | 61 | 1010.4 |
| 20260505035530 | 56 | 180 | 0.9 | 2.6 | 0.00 | 0.00 | 0.00 | 60 | 1010.3 |
| 20260505035030 | 56 | 184 | 0.9 | 3.5 | 0.00 | 0.00 | 0.00 | 59 | 1010.4 |
| 20260505034529 | 56 | 224 | 0.9 | 6.1 | 0.00 | 0.00 | 0.00 | 59 | 1010.4 |
| 20260505034029 | 56 | 234 | 1.7 | 6.1 | 0.00 | 0.00 | 0.00 | 58 | 1010.4 |
| 20260505033529 | 57 | 244 | 0.9 | 5.2 | 0.00 | 0.00 | 0.00 | 58 | 1010.4 |
| 20260505033031 | 57 | 208 | 0.9 | 6.1 | 0.00 | 0.00 | 0.00 | 57 | 1010.4 |
| 20260505032551 | 57 | 196 | 1.7 | 7.8 | 0.00 | 0.00 | 0.00 | 56 | 1010.4 |
| 20260505032051 | 57 | 205 | 1.7 | 12.2 | 0.00 | 0.00 | 0.00 | 56 | 1010.3 |
| 20260505031531 | 57 | 200 | 1.7 | 7.8 | 0.00 | 0.00 | 0.00 | 55 | 1010.2 |
| 20260505031032 | 57 | 214 | 1.7 | 7.8 | 0.00 | 0.00 | 0.00 | 55 | 1010.3 |
| 20260505030530 | 57 | 220 | 0.9 | 7.0 | 0.00 | 0.00 | 0.00 | 55 | 1010.3 |
| 20260505030030 | 58 | 196 | 1.7 | 9.6 | 0.00 | 0.00 | 0.00 | 54 | 1010.3 |
| 20260505025530 | 58 | 199 | 2.6 | 9.6 | 0.00 | 0.00 | 0.00 | 54 | 1010.3 |
| 20260505025030 | 58 | 233 | 1.7 | 6.1 | 0.00 | 0.00 | 0.00 | 53 | 1010.3 |
| 20260505024530 | 58 | 193 | 0.9 | 5.2 | 0.00 | 0.00 | 0.00 | 53 | 1010.3 |
| 20260505024050 | 58 | 219 | 1.7 | 5.2 | 0.00 | 0.00 | 0.00 | 53 | 1010.4 |
| 20260505023550 | 58 | 217 | 1.7 | 11.3 | 0.00 | 0.00 | 0.00 | 52 | 1010.4 |
| 20260505023029 | 58 | 208 | 1.7 | 11.3 | 0.00 | 0.00 | 0.00 | 52 | 1010.5 |
| 20260505022550 | 58 | 187 | 1.7 | 6.1 | 0.00 | 0.00 | 0.00 | 52 | 1010.5 |
| 20260505022031 | 58 | 203 | 0.9 | 5.2 | 0.00 | 0.00 | 0.00 | 51 | 1010.4 |
| 20260505021531 | 58 | 234 | 0.9 | 6.1 | 0.00 | 0.00 | 0.00 | 51 | 1010.4 |
| 20260505021031 | 59 | 254 | 0.9 | 3.5 | 0.00 | 0.00 | 0.00 | 50 | 1010.4 |
| 20260505020531 | 59 | 220 | 1.7 | 6.1 | 0.00 | 0.00 | 0.00 | 50 | 1010.3 |
| 20260505020031 | 59 | 202 | 0.9 | 3.5 | 0.00 | 0.00 | 0.00 | 50 | 1010.3 |
| 20260505015531 | 59 | 230 | 1.7 | 7.0 | 0.00 | 0.00 | 0.00 | 49 | 1010.2 |
| 20260505015050 | 60 | 247 | 1.7 | 5.2 | 0.00 | 0.00 | 0.00 | 48 | 1010.3 |
| 20260505014530 | 60 | 225 | 1.7 | 9.6 | 0.00 | 0.00 | 0.00 | 48 | 1010.3 |
| 20260505014030 | 60 | 221 | 1.7 | 9.6 | 0.00 | 0.00 | 0.00 | 49 | 1010.1 |
| 20260505013550 | 60 | 233 | 0.9 | 5.2 | 0.00 | 0.00 | 0.00 | 48 | 1010.1 |
| 20260505013030 | 60 | 235 | 2.6 | 9.6 | 0.00 | 0.00 | 0.00 | 47 | 1010.0 |
| 20260505012530 | 60 | 209 | 1.7 | 7.0 | 0.00 | 0.00 | 0.00 | 47 | 1010.0 |
| 20260505012029 | 61 | 229 | 1.7 | 7.0 | 0.00 | 0.00 | 0.00 | 46 | 1009.8 |
| 20260505011549 | 61 | 237 | 1.7 | 7.0 | 0.00 | 0.00 | 0.00 | 46 | 1009.8 |
| 20260505011029 | 61 | 235 | 1.7 | 7.8 | 0.00 | 0.00 | 0.00 | 45 | 1009.7 |
| 20260505010531 | 61 | 233 | 1.7 | 7.8 | 0.00 | 0.00 | 0.00 | 45 | 1009.6 |
| 20260505010031 | 62 | 240 | 0.9 | 7.8 | 0.00 | 0.00 | 0.00 | 45 | 1009.6 |
| 20260505005531 | 62 | 238 | 2.6 | 7.8 | 0.00 | 0.00 | 0.00 | 44 | 1009.3 |
| 20260505005030 | 62 | 223 | 2.6 | 13.9 | 0.00 | 0.00 | 0.00 | 44 | 1009.4 |
| 20260505004530 | 62 | 186 | 1.7 | 8.7 | 0.00 | 0.00 | 0.00 | 44 | 1009.2 |
| 20260505004030 | 62 | 207 | 1.7 | 8.7 | 0.00 | 0.00 | 0.00 | 44 | 1009.1 |
| 20260505003530 | 62 | 245 | 2.6 | 7.0 | 0.00 | 0.00 | 0.00 | 44 | 1009.0 |
| 20260505003030 | 63 | 234 | 1.7 | 8.7 | 0.00 | 0.00 | 0.00 | 43 | 1008.8 |
| 20260505002550 | 63 | 200 | 1.7 | 11.3 | 0.00 | 0.00 | 0.00 | 43 | 1008.6 |
| 20260505002030 | 63 | 230 | 2.6 | 12.2 | 0.00 | 0.00 | 0.00 | 42 | 1008.6 |
| 20260505001530 | 63 | 245 | 1.7 | 7.0 | 0.00 | 0.00 | 0.00 | 42 | 1008.5 |
| 20260505001029 | 63 | 212 | 2.6 | 7.8 | 0.00 | 0.00 | 0.00 | 42 | 1008.4 |
| 20260505000529 | 63 | 206 | 2.6 | 12.2 | 0.00 | 0.00 | 0.00 | 42 | 1008.2 |
| 20260505000029 | 64 | 255 | 2.6 | 12.2 | 0.00 | 0.00 | 0.00 | 41 | 1008.2 |
| 20260504235529 | 64 | 239 | 2.6 | 15.6 | 0.00 | 0.00 | 0.00 | 41 | 1008.0 |
| 20260504235051 | 64 | 192 | 1.7 | 15.6 | 0.00 | 0.00 | 0.00 | 41 | 1008.0 |
| 20260504234531 | 65 | 226 | 2.6 | 18.2 | 0.00 | 0.00 | 0.00 | 40 | 1007.9 |
| 20260504234031 | 65 | 236 | 2.6 | 7.8 | 0.00 | 0.00 | 0.00 | 40 | 1007.9 |
| 20260504233530 | 65 | 238 | 2.6 | 6.1 | 0.00 | 0.00 | 0.00 | 39 | 1007.7 |
| 20260504233031 | 66 | 206 | 2.6 | 8.7 | 0.00 | 0.00 | 0.00 | 38 | 1007.7 |
| 20260504232530 | 66 | 228 | 1.7 | 11.3 | 0.00 | 0.00 | 0.00 | 38 | 1007.5 |
| 20260504232050 | 66 | 240 | 2.6 | 11.3 | 0.00 | 0.00 | 0.00 | 37 | 1007.5 |
| 20260504231530 | 66 | 278 | 1.7 | 7.0 | 0.00 | 0.00 | 0.00 | 37 | 1007.4 |
| 20260504231030 | 67 | 258 | 2.6 | 9.6 | 0.00 | 0.00 | 0.00 | 36 | 1007.3 |
| 20260504230530 | 67 | 215 | 2.6 | 9.6 | 0.00 | 0.00 | 0.00 | 36 | 1007.1 |
| 20260504230029 | 67 | 241 | 2.6 | 9.6 | 0.00 | 0.00 | 0.00 | 35 | 1007.0 |
| 20260504225529 | 68 | 221 | 1.7 | 7.8 | 0.00 | 0.00 | 0.00 | 35 | 1006.9 |
| 20260504225029 | 68 | 225 | 1.7 | 11.3 | 0.00 | 0.00 | 0.00 | 34 | 1006.7 |
| 20260504224529 | 69 | 207 | 2.6 | 9.6 | 0.00 | 0.00 | 0.00 | 33 | 1006.7 |
| 20260504224031 | 69 | 252 | 3.5 | 9.6 | 0.00 | 0.00 | 0.00 | 31 | 1006.7 |
| 20260504223531 | 69 | 263 | 1.7 | 7.0 | 0.00 | 0.00 | 0.00 | 30 | 1006.6 |
| 20260504223030 | 70 | 224 | 1.7 | 7.8 | 0.00 | 0.00 | 0.00 | 30 | 1006.5 |
| 20260504222531 | 70 | 237 | 1.7 | 7.8 | 0.00 | 0.00 | 0.00 | 30 | 1006.5 |
| 20260504222030 | 70 | 228 | 1.7 | 7.8 | 0.00 | 0.00 | 0.00 | 29 | 1006.5 |
| 20260504221531 | 70 | 219 | 1.7 | 8.7 | 0.00 | 0.00 | 0.00 | 30 | 1006.6 |
| 20260504221030 | 70 | 257 | 1.7 | 5.2 | 0.00 | 0.00 | 0.00 | 29 | 1006.5 |
| 20260504220530 | 70 | 253 | 1.7 | 5.2 | 0.00 | 0.00 | 0.00 | 29 | 1006.5 |
| 20260504220030 | 70 | 229 | 1.7 | 12.2 | 0.00 | 0.00 | 0.00 | 29 | 1006.5 |
| 20260504215550 | 70 | 298 | 1.7 | 3.5 | 0.00 | 0.00 | 0.00 | 30 | 1006.6 |
| 20260504215030 | 70 | 250 | 1.7 | 3.5 | 0.00 | 0.00 | 0.00 | 30 | 1006.6 |
| 20260504214610 | 71 | 242 | 0.9 | 6.1 | 0.00 | 0.00 | 0.00 | 29 | 1006.4 |
| 20260504214029 | 71 | 199 | 1.7 | 5.2 | 0.00 | 0.00 | 0.00 | 29 | 1006.6 |
| 20260504213529 | 71 | 183 | 0.9 | 3.5 | 0.00 | 0.00 | 0.00 | 28 | 1006.6 |
| 20260504213029 | 71 | 261 | 1.7 | 3.5 | 0.00 | 0.00 | 0.00 | 29 | 1006.7 |
| 20260504212551 | 71 | 280 | 1.7 | 8.7 | 0.00 | 0.00 | 0.00 | 28 | 1006.6 |
| 20260504212030 | 71 | 133 | 1.7 | 5.2 | 0.00 | 0.00 | 0.00 | 29 | 1006.5 |
| 20260504211531 | 71 | 322 | 0.9 | 3.5 | 0.00 | 0.00 | 0.00 | 28 | 1006.5 |
| 20260504211030 | 71 | 236 | 1.7 | 5.2 | 0.00 | 0.00 | 0.00 | 28 | 1006.6 |
| 20260504210530 | 71 | 316 | 1.7 | 6.1 | 0.00 | 0.00 | 0.00 | 27 | 1006.6 |
| 20260504210030 | 71 | 219 | 2.6 | 7.0 | 0.00 | 0.00 | 0.00 | 29 | 1006.7 |
| 20260504205530 | 71 | 19 | 2.6 | 11.3 | 0.00 | 0.00 | 0.00 | 28 | 1006.6 |
| 20260504205030 | 71 | 288 | 2.6 | 7.8 | 0.00 | 0.00 | 0.00 | 28 | 1006.5 |
| 20260504204530 | 71 | 139 | 1.7 | 8.7 | 0.00 | 0.00 | 0.00 | 28 | 1006.6 |
| 20260504204030 | 72 | 250 | 0.9 | 7.0 | 0.00 | 0.00 | 0.00 | 27 | 1006.6 |
| 20260504203529 | 72 | 206 | 1.7 | 8.7 | 0.00 | 0.00 | 0.00 | 28 | 1006.5 |
| 20260504203029 | 72 | 217 | 0.9 | 5.2 | 0.00 | 0.00 | 0.00 | 28 | 1006.6 |
| 20260504202530 | 71 | 211 | 0.9 | 11.3 | 0.00 | 0.00 | 0.00 | 28 | 1006.6 |
| 20260504202030 | 71 | 250 | 1.7 | 11.3 | 0.00 | 0.00 | 0.00 | 26 | 1006.7 |
| 20260504201530 | 72 | 341 | 2.6 | 13.9 | 0.00 | 0.00 | 0.00 | 26 | 1006.8 |
| 20260504201110 | 72 | 181 | 3.5 | 13.9 | 0.00 | 0.00 | 0.00 | 26 | 1006.7 |
| 20260504200550 | 72 | 324 | 1.7 | 8.7 | 0.00 | 0.00 | 0.00 | 26 | 1006.8 |
| 20260504200029 | 72 | 290 | 2.6 | 8.7 | 0.00 | 0.00 | 0.00 | 28 | 1006.8 |
| 20260504195529 | 72 | 267 | 1.7 | 6.1 | 0.00 | 0.00 | 0.00 | 27 | 1006.7 |
| 20260504195029 | 72 | 278 | 1.7 | 6.1 | 0.00 | 0.00 | 0.00 | 27 | 1006.7 |
| 20260504194529 | 72 | 250 | 1.7 | 6.1 | 0.00 | 0.00 | 0.00 | 26 | 1006.9 |
| 20260504194029 | 72 | 285 | 2.6 | 7.0 | 0.00 | 0.00 | 0.00 | 26 | 1006.9 |
| 20260504193549 | 72 | 359 | 2.6 | 6.1 | 0.00 | 0.00 | 0.00 | 27 | 1006.8 |
| 20260504193030 | 72 | 268 | 2.6 | 7.0 | 0.00 | 0.00 | 0.00 | 26 | 1006.8 |
| 20260504192530 | 72 | 294 | 2.6 | 8.7 | 0.00 | 0.00 | 0.00 | 25 | 1006.8 |
| 20260504192050 | 72 | 263 | 2.6 | 8.7 | 0.00 | 0.00 | 0.00 | 26 | 1006.7 |
| 20260504191530 | 72 | 245 | 1.7 | 9.6 | 0.00 | 0.00 | 0.00 | 26 | 1006.9 |
| 20260504191029 | 72 | 332 | 1.7 | 9.6 | 0.00 | 0.00 | 0.00 | 26 | 1006.9 |
| 20260504190529 | 72 | 277 | 1.7 | 6.1 | 0.00 | 0.00 | 0.00 | 27 | 1007.0 |
| 20260504190032 | 72 | 210 | 2.6 | 7.8 | 0.00 | 0.00 | 0.00 | 26 | 1007.0 |
| 20260504185530 | 72 | 260 | 2.6 | 6.1 | 0.00 | 0.00 | 0.00 | 26 | 1007.2 |
| 20260504185110 | 72 | 308 | 1.7 | 11.3 | 0.00 | 0.00 | 0.00 | 27 | 1007.1 |
| 20260504184529 | 71 | 316 | 2.6 | 11.3 | 0.00 | 0.00 | 0.00 | 27 | 1007.1 |
| 20260504184029 | 72 | 21 | 2.6 | 8.7 | 0.00 | 0.00 | 0.00 | 26 | 1007.2 |
| 20260504183529 | 72 | 263 | 2.6 | 9.6 | 0.00 | 0.00 | 0.00 | 27 | 1007.2 |
| 20260504183049 | 71 | 215 | 2.6 | 9.6 | 0.00 | 0.00 | 0.00 | 28 | 1007.2 |
| 20260504182530 | 71 | 240 | 3.5 | 9.6 | 0.00 | 0.00 | 0.00 | 27 | 1007.3 |
| 20260504182050 | 71 | 287 | 2.6 | 7.8 | 0.00 | 0.00 | 0.00 | 28 | 1007.3 |
| 20260504181534 | 71 | 266 | 3.5 | 8.7 | 0.00 | 0.00 | 0.00 | 27 | 1007.4 |
| 20260504181029 | 71 | 264 | 2.6 | 13.0 | 0.00 | 0.00 | 0.00 | 29 | 1007.3 |
| 20260504180529 | 71 | 221 | 3.5 | 13.0 | 0.00 | 0.00 | 0.00 | 28 | 1007.4 |
| 20260504180029 | 71 | 253 | 2.6 | 11.3 | 0.00 | 0.00 | 0.00 | 28 | 1007.3 |
| 20260504175530 | 71 | 188 | 1.7 | 9.6 | 0.00 | 0.00 | 0.00 | 29 | 1007.4 |
| 20260504175029 | 71 | 242 | 2.6 | 5.2 | 0.00 | 0.00 | 0.00 | 28 | 1007.5 |
| 20260504174531 | 70 | 239 | 2.6 | 7.0 | 0.00 | 0.00 | 0.00 | 28 | 1007.7 |
| 20260504174031 | 71 | 318 | 2.6 | 7.0 | 0.00 | 0.00 | 0.00 | 28 | 1007.7 |
| 20260504173611 | 70 | 205 | 1.7 | 7.0 | 0.00 | 0.00 | 0.00 | 28 | 1007.6 |
| 20260504173030 | 70 | 226 | 2.6 | 7.0 | 0.00 | 0.00 | 0.00 | 30 | 1007.7 |
| 20260504172531 | 71 | 262 | 2.6 | 9.6 | 0.00 | 0.00 | 0.00 | 28 | 1007.9 |
| 20260504172030 | 70 | 250 | 2.6 | 9.6 | 0.00 | 0.00 | 0.00 | 29 | 1007.6 |
| 20260504171610 | 70 | 216 | 2.6 | 7.8 | 0.00 | 0.00 | 0.00 | 29 | 1007.7 |
| 20260504171030 | 70 | 20 | 1.7 | 11.3 | 0.00 | 0.00 | 0.00 | 28 | 1007.6 |
| 20260504170530 | 69 | 223 | 3.5 | 11.3 | 0.00 | 0.00 | 0.00 | 29 | 1007.7 |
| 20260504151030 | 68 | 315 | 1.7 | 7.0 | 0.00 | 0.00 | 0.00 | 33 | 1008.9 |
| 20260504150529 | 67 | 211 | 1.7 | 7.0 | 0.00 | 0.00 | 0.00 | 33 | 1009.0 |
| 20260504141030 | 64 | 302 | 1.7 | 5.2 | 0.00 | 0.00 | 0.00 | 38 | 1009.5 |
| 20260504140529 | 63 | 313 | 1.7 | 3.5 | 0.00 | 0.00 | 0.00 | 37 | 1009.6 |